| time (UTC) | temp C | wind direction | speed KPH | gust KPH | rain 1hr cm | rain 24hr cm | rain mn cm | humidity % | barometer mb |
| 20260831114624 | 23 | 154 | 0.0 | 0.0 | 0.00 | 0.00 | 0.00 | 76 | 1013.0 |
| 20260831113629 | 23 | 154 | 0.0 | 0.0 | 0.00 | 0.00 | 0.00 | 75 | 1013.0 |
| 20260831112631 | 23 | 154 | 0.0 | 0.0 | 0.00 | 0.00 | 0.00 | 74 | 1012.9 |
| 20260831111610 | 23 | 154 | 0.0 | 0.0 | 0.00 | 0.00 | 0.00 | 73 | 1012.8 |
| 20260831110548 | 23 | 154 | 0.0 | 0.0 | 0.00 | 0.00 | 0.00 | 72 | 1012.7 |
| 20260831105541 | 24 | 154 | 0.0 | 0.0 | 0.00 | 0.00 | 0.00 | 72 | 1012.6 |
| 20260831104602 | 24 | 154 | 0.0 | 0.0 | 0.00 | 0.00 | 0.00 | 70 | 1012.7 |
| 20260831102441 | 25 | 154 | 0.0 | 0.0 | 0.00 | 0.00 | 0.00 | 67 | 1012.7 |
| 20260831100334 | 26 | 154 | 0.0 | 0.0 | 0.00 | 0.00 | 0.00 | 64 | 1012.5 |
| 20260831095348 | 26 | 154 | 0.0 | 0.0 | 0.00 | 0.00 | 0.00 | 64 | 1012.4 |
| 20260831094352 | 27 | 154 | 0.0 | 0.0 | 0.00 | 0.00 | 0.00 | 62 | 1012.4 |
| 20260831093331 | 27 | 154 | 0.0 | 0.0 | 0.00 | 0.00 | 0.00 | 61 | 1012.4 |
| 20260831092314 | 27 | 154 | 0.0 | 0.0 | 0.00 | 0.00 | 0.00 | 61 | 1012.4 |
| 20260831091314 | 27 | 154 | 0.0 | 0.0 | 0.00 | 0.00 | 0.00 | 59 | 1012.3 |
| 20260831090326 | 27 | 154 | 0.0 | 0.0 | 0.00 | 0.00 | 0.00 | 58 | 1012.3 |
| 20260831085312 | 28 | 154 | 0.0 | 0.0 | 0.00 | 0.00 | 0.00 | 57 | 1012.2 |
| 20260831084252 | 28 | 158 | 0.0 | 0.0 | 0.00 | 0.00 | 0.00 | 56 | 1012.2 |
| 20260831083251 | 28 | 153 | 0.0 | 1.6 | 0.00 | 0.00 | 0.00 | 56 | 1012.2 |
| 20260831082252 | 28 | 153 | 0.0 | 4.8 | 0.00 | 0.00 | 0.00 | 55 | 1012.3 |
| 20260831081222 | 28 | 142 | 0.0 | 1.6 | 0.00 | 0.00 | 0.00 | 56 | 1012.3 |
| 20260831080211 | 27 | 175 | 0.0 | 4.8 | 0.00 | 0.00 | 0.00 | 56 | 1012.2 |
| 20260831075141 | 27 | 92 | 0.0 | 8.0 | 0.00 | 0.00 | 0.00 | 58 | 1012.1 |
| 20260831073021 | 25 | 128 | 0.0 | 0.0 | 0.00 | 0.00 | 0.00 | 65 | 1011.9 |
| 20260831070825 | 25 | 128 | 0.0 | 0.0 | 0.00 | 0.00 | 0.00 | 68 | 1012.0 |
| 20260831065805 | 25 | 128 | 0.0 | 0.0 | 0.00 | 0.00 | 0.00 | 67 | 1012.0 |
| 20260831063636 | 25 | 128 | 0.0 | 0.0 | 0.00 | 0.00 | 0.00 | 66 | 1012.2 |
| 20260831061433 | 25 | 128 | 0.0 | 0.0 | 0.00 | 0.00 | 0.00 | 66 | 1012.2 |
| 20260831060410 | 25 | 128 | 0.0 | 0.0 | 0.00 | 0.00 | 0.00 | 66 | 1012.1 |
| 20260831055430 | 25 | 128 | 0.0 | 0.0 | 0.00 | 0.00 | 0.00 | 65 | 1012.1 |
| 20260831052213 | 26 | 128 | 0.0 | 0.0 | 0.00 | 0.00 | 0.00 | 64 | 1012.0 |
| 20260831051156 | 26 | 128 | 0.0 | 0.0 | 0.00 | 0.00 | 0.00 | 63 | 1011.9 |
| 20260831050157 | 26 | 128 | 0.0 | 0.0 | 0.00 | 0.00 | 0.00 | 63 | 1011.9 |
| 20260831045204 | 26 | 128 | 0.0 | 0.0 | 0.00 | 0.00 | 0.00 | 62 | 1011.8 |
| 20260831044137 | 27 | 128 | 0.0 | 0.0 | 0.00 | 0.00 | 0.00 | 62 | 1011.9 |
| 20260831043136 | 27 | 128 | 0.0 | 0.0 | 0.00 | 0.00 | 0.00 | 61 | 1011.9 |
| 20260831042155 | 27 | 128 | 0.0 | 0.0 | 0.00 | 0.00 | 0.00 | 59 | 1011.9 |
| 20260831040023 | 28 | 128 | 0.0 | 0.0 | 0.00 | 0.00 | 0.00 | 57 | 1011.8 |
| 20260831035019 | 28 | 128 | 0.0 | 0.0 | 0.00 | 0.00 | 0.00 | 56 | 1011.7 |
| 20260831034014 | 28 | 128 | 0.0 | 0.0 | 0.00 | 0.00 | 0.00 | 55 | 1011.7 |
| 20260831031847 | 29 | 128 | 0.0 | 0.0 | 0.00 | 0.00 | 0.00 | 54 | 1011.6 |
| 20260831030830 | 29 | 128 | 0.0 | 0.0 | 0.00 | 0.00 | 0.00 | 53 | 1011.5 |
| 20260831025815 | 29 | 128 | 0.0 | 0.0 | 0.00 | 0.00 | 0.00 | 52 | 1011.4 |
| 20260831024741 | 29 | 128 | 0.0 | 0.0 | 0.00 | 0.00 | 0.00 | 50 | 1011.3 |
| 20260831021515 | 30 | 128 | 0.0 | 0.0 | 0.00 | 0.00 | 0.00 | 45 | 1011.0 |
| 20260831015421 | 30 | 128 | 0.0 | 0.0 | 0.00 | 0.00 | 0.00 | 45 | 1010.6 |
| 20260831014422 | 31 | 128 | 0.0 | 0.0 | 0.00 | 0.00 | 0.00 | 43 | 1010.4 |
| 20260831013409 | 32 | 128 | 0.0 | 0.0 | 0.00 | 0.00 | 0.00 | 40 | 1010.4 |
| 20260831011221 | 34 | 128 | 0.0 | 0.0 | 0.00 | 0.00 | 0.00 | 36 | 1010.1 |
| 20260831010223 | 35 | 128 | 0.0 | 0.0 | 0.00 | 0.00 | 0.00 | 34 | 1010.1 |
| 20260831005211 | 35 | 128 | 0.0 | 0.0 | 0.00 | 0.00 | 0.00 | 31 | 1010.1 |
| 20260831003012 | 36 | 139 | 1.6 | 6.4 | 0.00 | 0.00 | 0.00 | 29 | 1010.1 |
| 20260831002011 | 36 | 200 | 1.6 | 9.7 | 0.00 | 0.00 | 0.00 | 28 | 1010.1 |
| 20260831001032 | 37 | 161 | 1.6 | 9.7 | 0.00 | 0.00 | 0.00 | 27 | 1010.0 |
| 20260830235957 | 37 | 157 | 1.6 | 6.4 | 0.00 | 0.00 | 0.00 | 27 | 1010.1 |
| 20260830235015 | 37 | 114 | 0.0 | 3.2 | 0.00 | 0.00 | 0.00 | 27 | 1010.1 |
| 20260830232843 | 37 | 222 | 3.2 | 9.7 | 0.00 | 0.00 | 0.00 | 28 | 1010.2 |
| 20260830231832 | 37 | 150 | 3.2 | 11.3 | 0.00 | 0.00 | 0.00 | 25 | 1010.2 |
| 20260830225622 | 37 | 241 | 1.6 | 9.7 | 0.00 | 0.00 | 0.00 | 28 | 1010.2 |
| 20260830224633 | 37 | 192 | 3.2 | 9.7 | 0.00 | 0.00 | 0.00 | 26 | 1010.3 |
| 20260830221324 | 37 | 90 | 3.2 | 12.9 | 0.00 | 0.00 | 0.00 | 27 | 1010.5 |
| 20260830220327 | 38 | 112 | 3.2 | 12.9 | 0.00 | 0.00 | 0.00 | 28 | 1010.5 |
| 20260830215331 | 38 | 202 | 4.8 | 11.3 | 0.00 | 0.00 | 0.00 | 28 | 1010.4 |
| 20260830213159 | 38 | 153 | 3.2 | 17.7 | 0.00 | 0.00 | 0.00 | 28 | 1010.6 |
| 20260830212124 | 38 | 185 | 6.4 | 17.7 | 0.00 | 0.00 | 0.00 | 27 | 1010.6 |
| 20260830204824 | 38 | 154 | 3.2 | 12.9 | 0.00 | 0.00 | 0.00 | 26 | 1011.1 |
| 20260830203843 | 38 | 215 | 3.2 | 12.9 | 0.00 | 0.00 | 0.00 | 27 | 1011.2 |
| 20260830202849 | 38 | 115 | 3.2 | 12.9 | 0.00 | 0.00 | 0.00 | 27 | 1011.3 |
| 20260830201819 | 38 | 266 | 3.2 | 9.7 | 0.00 | 0.00 | 0.00 | 26 | 1011.4 |
| 20260830200758 | 38 | 161 | 3.2 | 11.3 | 0.00 | 0.00 | 0.00 | 29 | 1011.5 |
| 20260830195803 | 38 | 227 | 4.8 | 16.1 | 0.00 | 0.00 | 0.00 | 29 | 1011.7 |
| 20260830194741 | 38 | 120 | 4.8 | 16.1 | 0.00 | 0.00 | 0.00 | 28 | 1011.8 |
| 20260830193718 | 37 | 193 | 3.2 | 14.5 | 0.00 | 0.00 | 0.00 | 30 | 1011.9 |
| 20260830192718 | 38 | 150 | 3.2 | 14.5 | 0.00 | 0.00 | 0.00 | 30 | 1012.1 |
| 20260830191707 | 37 | 235 | 4.8 | 12.9 | 0.00 | 0.00 | 0.00 | 32 | 1012.2 |
| 20260830190631 | 37 | 236 | 3.2 | 14.5 | 0.00 | 0.00 | 0.00 | 31 | 1012.3 |
| 20260830185642 | 37 | 205 | 4.8 | 14.5 | 0.00 | 0.00 | 0.00 | 33 | 1012.4 |
| 20260830184621 | 37 | 227 | 4.8 | 14.5 | 0.00 | 0.00 | 0.00 | 34 | 1012.5 |
| 20260830183544 | 37 | 296 | 4.8 | 16.1 | 0.00 | 0.00 | 0.00 | 33 | 1012.7 |
| 20260830182541 | 37 | 138 | 6.4 | 19.3 | 0.00 | 0.00 | 0.00 | 33 | 1012.9 |
| 20260830181601 | 37 | 193 | 6.4 | 19.3 | 0.00 | 0.00 | 0.00 | 33 | 1013.1 |
| 20260830180546 | 37 | 259 | 4.8 | 17.7 | 0.00 | 0.00 | 0.00 | 34 | 1013.2 |
| 20260830175604 | 37 | 217 | 4.8 | 16.1 | 0.00 | 0.00 | 0.00 | 33 | 1013.3 |
| 20260830174612 | 36 | 194 | 4.8 | 19.3 | 0.00 | 0.00 | 0.00 | 37 | 1013.4 |
| 20260830171340 | 36 | 144 | 4.8 | 14.5 | 0.00 | 0.00 | 0.00 | 40 | 1013.9 |
| 20260830170353 | 36 | 121 | 3.2 | 12.9 | 0.00 | 0.00 | 0.00 | 40 | 1014.0 |
| 20260830165408 | 35 | 158 | 4.8 | 14.5 | 0.00 | 0.00 | 0.00 | 40 | 1014.1 |
| 20260830164347 | 35 | 238 | 4.8 | 14.5 | 0.00 | 0.00 | 0.00 | 43 | 1014.2 |
| 20260830163342 | 35 | 178 | 4.8 | 12.9 | 0.00 | 0.00 | 0.00 | 43 | 1014.2 |
| 20260830162328 | 35 | 231 | 3.2 | 12.9 | 0.00 | 0.00 | 0.00 | 44 | 1014.3 |
| 20260830161319 | 34 | 205 | 4.8 | 12.9 | 0.00 | 0.00 | 0.00 | 45 | 1014.4 |
| 20260830155222 | 33 | 46 | 3.2 | 14.5 | 0.00 | 0.00 | 0.00 | 48 | 1014.5 |
| 20260830154210 | 33 | 160 | 4.8 | 14.5 | 0.00 | 0.00 | 0.00 | 49 | 1014.4 |
| 20260830153219 | 33 | 216 | 3.2 | 11.3 | 0.00 | 0.00 | 0.00 | 49 | 1014.4 |
| 20260830152216 | 33 | 184 | 3.2 | 11.3 | 0.00 | 0.00 | 0.00 | 50 | 1014.3 |
| 20260830151145 | 32 | 239 | 3.2 | 11.3 | 0.00 | 0.00 | 0.00 | 50 | 1014.4 |
| 20260830150117 | 32 | 216 | 1.6 | 11.3 | 0.00 | 0.00 | 0.00 | 52 | 1014.5 |
| 20260830145122 | 32 | 229 | 1.6 | 9.7 | 0.00 | 0.00 | 0.00 | 54 | 1014.4 |
| 20260830144054 | 31 | 166 | 1.6 | 11.3 | 0.00 | 0.00 | 0.00 | 54 | 1014.4 |
| 20260830143101 | 31 | 116 | 1.6 | 11.3 | 0.00 | 0.00 | 0.00 | 56 | 1014.3 |
| 20260830142048 | 30 | 231 | 1.6 | 6.4 | 0.00 | 0.00 | 0.00 | 58 | 1014.4 |
| 20260830141034 | 30 | 251 | 1.6 | 6.4 | 0.00 | 0.00 | 0.00 | 59 | 1014.4 |
| 20260830140014 | 29 | 259 | 1.6 | 4.8 | 0.00 | 0.00 | 0.00 | 64 | 1014.5 |
| 20260830135032 | 28 | 186 | 0.0 | 6.4 | 0.00 | 0.00 | 0.00 | 66 | 1014.5 |
| 20260830134023 | 27 | 171 | 0.0 | 6.4 | 0.00 | 0.00 | 0.00 | 69 | 1014.4 |
| 20260830133015 | 26 | 153 | 0.0 | 0.0 | 0.00 | 0.00 | 0.00 | 73 | 1014.4 |
| 20260830131947 | 25 | 119 | 0.0 | 3.2 | 0.00 | 0.00 | 0.00 | 77 | 1014.3 |
| 20260830131000 | 24 | 188 | 0.0 | 0.0 | 0.00 | 0.00 | 0.00 | 77 | 1014.2 |
| 20260830125925 | 24 | 188 | 0.0 | 0.0 | 0.00 | 0.00 | 0.00 | 78 | 1014.1 |
| 20260830124909 | 23 | 188 | 0.0 | 0.0 | 0.00 | 0.00 | 0.00 | 77 | 1014.0 |
| 20260830123833 | 23 | 188 | 0.0 | 0.0 | 0.00 | 0.00 | 0.00 | 77 | 1013.8 |
| 20260830122832 | 23 | 135 | 0.0 | 0.0 | 0.00 | 0.00 | 0.00 | 76 | 1013.7 |
| 20260830121811 | 23 | 135 | 0.0 | 0.0 | 0.00 | 0.00 | 0.00 | 76 | 1013.6 |
| 20260830120834 | 23 | 135 | 0.0 | 0.0 | 0.00 | 0.00 | 0.00 | 76 | 1013.6 |
| 20260830115833 | 23 | 128 | 0.0 | 0.0 | 0.00 | 0.00 | 0.00 | 75 | 1013.4 |
| 20260830114803 | 23 | 128 | 0.0 | 0.0 | 0.00 | 0.00 | 0.00 | 75 | 1013.2 |